Location: Colle Santa Colomba
(42.0333°N, 12.5667°E)
Time: 03:33:52
(UTC+00:00)

H-2A R/B - Pass Details

Date: 25 October 2021
Orbit: 527 x 651 km, 98.3° (Epoch: 28 November)

Event Time Altitude Azimuth Distance (km) Brightness Sun altitude
Rises 16:49:36 0° 130° (SE) 2,879 5.6 -7.5°
Reaches altitude 10° 16:52:14 10° 114° (ESE) 1,957 4.6 -7.9°
Maximum altitude 16:55:22 21° 67° (ENE) 1,376 3.8 -8.5°
Drops below altitude 10° 16:58:27 10° 18° (NNE) 1,911 4.8 -9.1°
Sets 17:00:59 0° 2° (N) 2,791 5.8 -9.6°
